YAOGAN-10

Last updated on Thu Jul 03 2025 00:02:29 GMT+0000 (Coordinated Universal Time)

1 36834U 10038A 25183.58672137 .00000513 00000+0 67647-4 0 9996 2 36834 97.9248 204.5095 0001537 97.0180 18.3054 14.84236722805330
UTC large
Height (km)
Speed (km/s)
/
Latitude / Longitude
Inclination (degrees)
Orbital Period (minutes)
Azimuth
Elevation
Range (km)
Doppler Factor

Next 0 passes for location: London (51.5072 / 0.1276)

Sorry there are no passes over London.